| time (UTC) | temp F | wind direction | speed knots | gust knots | rain 1hr in | rain 24hr in | rain mn in | humidity % | barometer mb |
| 20260510190046 | 80 | 331 | 0.9 | 3.5 | 0.00 | 0.00 | 0.00 | 43 | 1015.7 |
| 20260510184542 | 80 | 0 | 0.0 | 4.3 | 0.00 | 0.00 | 0.00 | 40 | 1015.7 |
| 20260510183053 | 80 | 338 | 0.9 | 2.6 | 0.00 | 0.00 | 0.00 | 41 | 1015.9 |
| 20260510181549 | 79 | 244 | 0.9 | 2.6 | 0.00 | 0.00 | 0.00 | 43 | 1016.1 |
| 20260510180053 | 80 | 0 | 0.0 | 3.5 | 0.00 | 0.00 | 0.00 | 41 | 1016.1 |
| 20260510174553 | 80 | 0 | 0.9 | 3.5 | 0.00 | 0.00 | 0.00 | 43 | 1016.2 |
| 20260510173102 | 80 | 169 | 2.6 | 4.3 | 0.00 | 0.00 | 0.00 | 42 | 1016.2 |
| 20260510171556 | 80 | 195 | 0.9 | 2.6 | 0.00 | 0.00 | 0.00 | 39 | 1016.3 |
| 20260510170101 | 80 | 211 | 0.9 | 3.5 | 0.00 | 0.00 | 0.00 | 38 | 1016.3 |
| 20260510164548 | 81 | 0 | 0.9 | 3.5 | 0.00 | 0.00 | 0.00 | 38 | 1016.4 |
| 20260510163044 | 80 | 182 | 0.9 | 3.5 | 0.00 | 0.00 | 0.00 | 36 | 1016.7 |
| 20260510161552 | 80 | 297 | 0.9 | 4.3 | 0.00 | 0.00 | 0.00 | 44 | 1016.7 |
| 20260510160055 | 79 | 88 | 0.0 | 2.6 | 0.00 | 0.00 | 0.00 | 48 | 1016.7 |
| 20260510154559 | 78 | 177 | 0.9 | 2.6 | 0.00 | 0.00 | 0.00 | 54 | 1016.9 |
| 20260510153051 | 76 | 0 | 0.0 | 1.7 | 0.00 | 0.00 | 0.00 | 57 | 1017.2 |
| 20260510151600 | 76 | 0 | 0.0 | 3.5 | 0.00 | 0.00 | 0.00 | 62 | 1016.9 |
| 20260510150054 | 76 | 49 | 0.9 | 1.7 | 0.00 | 0.00 | 0.00 | 54 | 1016.7 |
| 20260510144552 | 74 | 0 | 0.0 | 2.6 | 0.00 | 0.00 | 0.00 | 65 | 1016.9 |
| 20260510143051 | 73 | 227 | 0.0 | 2.6 | 0.00 | 0.00 | 0.00 | 72 | 1016.7 |
| 20260510141600 | 72 | 0 | 0.0 | 1.7 | 0.00 | 0.00 | 0.00 | 74 | 1016.6 |
| 20260510140052 | 69 | 0 | 0.0 | 0.9 | 0.00 | 0.00 | 0.00 | 80 | 1016.8 |
| 20260510134559 | 67 | 0 | 0.0 | 1.7 | 0.00 | 0.00 | 0.00 | 83 | 1016.8 |
| 20260510133101 | 66 | 0 | 0.0 | 0.9 | 0.00 | 0.00 | 0.00 | 86 | 1016.8 |
| 20260510131600 | 65 | 329 | 0.9 | 2.6 | 0.00 | 0.00 | 0.00 | 88 | 1016.7 |
| 20260510130049 | 64 | 0 | 0.0 | 1.7 | 0.00 | 0.00 | 0.00 | 91 | 1016.5 |
| 20260510124557 | 63 | 0 | 0.0 | 0.9 | 0.00 | 0.00 | 0.00 | 92 | 1016.2 |
| 20260510123100 | 62 | 0 | 0.0 | 0.9 | 0.00 | 0.00 | 0.00 | 94 | 1016.1 |
| 20260510121551 | 60 | 0 | 0.0 | 0.9 | 0.00 | 0.00 | 0.00 | 94 | 1016.1 |
| 20260510120049 | 59 | 0 | 0.0 | 0.0 | 0.00 | 0.00 | 0.00 | 94 | 1015.9 |
| 20260510114547 | 58 | 0 | 0.0 | 0.0 | 0.00 | 0.00 | 0.00 | 94 | 1015.8 |
| 20260510113051 | 58 | 0 | 0.0 | 0.0 | 0.00 | 0.00 | 0.00 | 93 | 1015.8 |
| 20260510111546 | 58 | 0 | 0.0 | 0.0 | 0.00 | 0.00 | 0.00 | 94 | 1015.3 |
| 20260510110049 | 57 | 0 | 0.0 | 0.0 | 0.00 | 0.00 | 0.00 | 93 | 1015.1 |
| 20260510104550 | 57 | 0 | 0.0 | 0.0 | 0.00 | 0.00 | 0.00 | 93 | 1014.8 |
| 20260510103050 | 57 | 0 | 0.0 | 0.0 | 0.00 | 0.00 | 0.00 | 93 | 1014.5 |
| 20260510101552 | 57 | 0 | 0.0 | 0.0 | 0.00 | 0.00 | 0.00 | 93 | 1014.3 |
| 20260510100050 | 58 | 0 | 0.0 | 0.0 | 0.00 | 0.00 | 0.00 | 93 | 1014.3 |
| 20260510094553 | 58 | 0 | 0.0 | 0.0 | 0.00 | 0.00 | 0.00 | 93 | 1014.1 |
| 20260510093051 | 58 | 0 | 0.0 | 0.0 | 0.00 | 0.00 | 0.00 | 93 | 1013.8 |
| 20260510091551 | 58 | 0 | 0.0 | 0.0 | 0.00 | 0.00 | 0.00 | 93 | 1013.9 |
| 20260510090048 | 58 | 0 | 0.0 | 0.0 | 0.00 | 0.00 | 0.00 | 93 | 1013.5 |
| 20260510084546 | 58 | 0 | 0.0 | 0.0 | 0.00 | 0.00 | 0.00 | 93 | 1013.3 |
| 20260510083056 | 58 | 0 | 0.0 | 0.0 | 0.00 | 0.00 | 0.00 | 93 | 1013.5 |
| 20260510081554 | 59 | 0 | 0.0 | 0.0 | 0.00 | 0.00 | 0.00 | 93 | 1013.3 |
| 20260510080050 | 59 | 0 | 0.0 | 0.0 | 0.00 | 0.00 | 0.00 | 93 | 1013.3 |
| 20260510074549 | 59 | 0 | 0.0 | 0.9 | 0.00 | 0.00 | 0.00 | 93 | 1013.3 |
| 20260510073106 | 59 | 0 | 0.0 | 0.0 | 0.00 | 0.00 | 0.00 | 93 | 1013.2 |
| 20260510071559 | 59 | 0 | 0.0 | 0.0 | 0.00 | 0.00 | 0.00 | 93 | 1013.1 |
| 20260510070054 | 59 | 0 | 0.0 | 0.0 | 0.00 | 0.00 | 0.00 | 92 | 1013.1 |
| 20260510064600 | 59 | 0 | 0.0 | 0.0 | 0.00 | 0.00 | 0.00 | 92 | 1013.3 |
| 20260510063058 | 59 | 0 | 0.0 | 0.0 | 0.00 | 0.00 | 0.00 | 92 | 1012.9 |
| 20260510061555 | 59 | 0 | 0.0 | 0.0 | 0.00 | 0.00 | 0.00 | 92 | 1013.3 |
| 20260510060049 | 59 | 0 | 0.0 | 0.0 | 0.00 | 0.00 | 0.00 | 92 | 1013.6 |
| 20260510054551 | 59 | 0 | 0.0 | 0.0 | 0.00 | 0.00 | 0.00 | 92 | 1013.5 |
| 20260510053053 | 60 | 0 | 0.0 | 0.0 | 0.00 | 0.00 | 0.00 | 92 | 1013.6 |
| 20260510051557 | 60 | 0 | 0.0 | 0.9 | 0.00 | 0.00 | 0.00 | 92 | 1013.8 |
| 20260510050052 | 60 | 0 | 0.0 | 0.0 | 0.00 | 0.00 | 0.00 | 92 | 1013.8 |
| 20260510044552 | 60 | 0 | 0.0 | 0.0 | 0.00 | 0.00 | 0.00 | 91 | 1014.0 |
| 20260510043107 | 60 | 0 | 0.0 | 0.0 | 0.00 | 0.00 | 0.00 | 91 | 1013.7 |
| 20260510041557 | 61 | 0 | 0.0 | 0.0 | 0.00 | 0.00 | 0.00 | 91 | 1013.7 |
| 20260510034551 | 61 | 0 | 0.0 | 0.0 | 0.00 | 0.00 | 0.00 | 91 | 1013.6 |
| 20260510033054 | 61 | 0 | 0.0 | 0.0 | 0.00 | 0.00 | 0.00 | 91 | 1013.5 |
| 20260510031556 | 61 | 0 | 0.0 | 0.9 | 0.00 | 0.00 | 0.00 | 91 | 1013.4 |
| 20260510030051 | 61 | 0 | 0.0 | 0.0 | 0.00 | 0.00 | 0.00 | 91 | 1013.3 |
| 20260510024551 | 62 | 0 | 0.0 | 0.0 | 0.00 | 0.00 | 0.00 | 90 | 1013.4 |
| 20260510023054 | 62 | 0 | 0.0 | 0.0 | 0.00 | 0.00 | 0.00 | 90 | 1013.3 |
| 20260510021550 | 62 | 0 | 0.0 | 0.9 | 0.00 | 0.00 | 0.00 | 90 | 1013.5 |
| 20260510020049 | 62 | 0 | 0.0 | 0.0 | 0.00 | 0.00 | 0.00 | 89 | 1013.2 |
| 20260510014559 | 62 | 0 | 0.0 | 0.0 | 0.00 | 0.00 | 0.00 | 89 | 1013.1 |
| 20260510013049 | 63 | 0 | 0.0 | 0.0 | 0.00 | 0.00 | 0.00 | 88 | 1012.8 |
| 20260510011551 | 63 | 0 | 0.0 | 0.0 | 0.00 | 0.00 | 0.00 | 87 | 1012.4 |
| 20260510010051 | 64 | 0 | 0.0 | 0.0 | 0.00 | 0.00 | 0.00 | 86 | 1012.4 |
| 20260510004552 | 65 | 0 | 0.0 | 0.0 | 0.00 | 0.00 | 0.00 | 85 | 1012.3 |
| 20260510003057 | 66 | 0 | 0.0 | 0.0 | 0.00 | 0.00 | 0.00 | 84 | 1012.4 |
| 20260510001556 | 67 | 0 | 0.0 | 0.0 | 0.00 | 0.00 | 0.00 | 83 | 1012.2 |
| 20260510000055 | 68 | 0 | 0.0 | 0.0 | 0.00 | 0.00 | 0.00 | 82 | 1012.1 |
| 20260509234552 | 69 | 0 | 0.0 | 0.0 | 0.00 | 0.00 | 0.00 | 80 | 1011.6 |
| 20260509233051 | 69 | 0 | 0.0 | 0.9 | 0.00 | 0.00 | 0.00 | 79 | 1011.6 |
| 20260509231554 | 70 | 0 | 0.0 | 2.6 | 0.00 | 0.00 | 0.00 | 75 | 1011.5 |
| 20260509230056 | 70 | 0 | 0.0 | 2.6 | 0.00 | 0.00 | 0.00 | 74 | 1011.2 |
| 20260509224557 | 71 | 172 | 0.0 | 6.1 | 0.00 | 0.00 | 0.00 | 73 | 1011.3 |
| 20260509223050 | 71 | 176 | 1.7 | 5.2 | 0.00 | 0.00 | 0.00 | 72 | 1011.2 |
| 20260509221600 | 72 | 159 | 0.9 | 7.8 | 0.00 | 0.00 | 0.00 | 72 | 1011.3 |
| 20260509220048 | 72 | 183 | 0.9 | 7.0 | 0.00 | 0.00 | 0.00 | 71 | 1011.5 |
| 20260509214548 | 71 | 256 | 0.0 | 4.3 | 0.00 | 0.00 | 0.00 | 71 | 1011.4 |
| 20260509213049 | 71 | 173 | 0.9 | 6.1 | 0.00 | 0.00 | 0.00 | 71 | 1011.3 |
| 20260509211546 | 71 | 155 | 0.0 | 4.3 | 0.00 | 0.00 | 0.00 | 72 | 1011.0 |
| 20260509210049 | 71 | 163 | 0.9 | 6.1 | 0.00 | 0.00 | 0.00 | 70 | 1011.2 |
| 20260509204551 | 71 | 235 | 0.9 | 6.1 | 0.00 | 0.00 | 0.00 | 70 | 1011.3 |
| 20260509203046 | 71 | 101 | 0.9 | 7.0 | 0.00 | 0.00 | 0.00 | 69 | 1011.3 |
| 20260509201556 | 71 | 169 | 1.7 | 7.0 | 0.00 | 0.00 | 0.00 | 67 | 1011.1 |
| 20260509200058 | 71 | 159 | 1.7 | 6.1 | 0.00 | 0.00 | 0.00 | 67 | 1011.4 |
| 20260509194545 | 72 | 205 | 0.0 | 7.0 | 0.00 | 0.00 | 0.00 | 65 | 1011.5 |
| 20260509193052 | 72 | 195 | 0.9 | 6.1 | 0.00 | 0.00 | 0.00 | 64 | 1011.5 |
| 20260509191551 | 71 | 172 | 0.9 | 6.1 | 0.00 | 0.00 | 0.00 | 64 | 1011.8 |